Location: Saluda
(35.2377°N, 82.3468°W)
Time: 04:18:20
(UTC+00:00)

Vanguard 2 Rocket - Pass Details

Date: 05 October 2022
Orbit: 555 x 3321 km, 32.9° (Epoch: 04 December)

Event Time Altitude Azimuth Distance (km) Brightness Sun altitude
Rises 01:38:27 0° 222° (SW) 7,299 11.8 -31.0°
Reaches altitude 10° 01:43:53 10° 217° (SW) 6,218 11.3 -32.1°
Enters shadow 02:00:46 44° 158° (SSE) 3,397 9.3 -35.3°
Maximum altitude 02:01:19 44° 153° (SSE) 3,360 - -35.4°
Drops below altitude 10° 02:13:06 10° 87° (E) 4,327 - -37.6°
Sets 02:16:06 0° 80° (E) 4,994 - -38.2°
